Time,TemperatureF,DewpointF,PressureIn,WindDirection,WindDirectionDegrees,WindSpeedMPH,WindSpeedGustMPH,Humidity,HourlyPrecipIn,Conditions,Clouds,dailyrainin,SoftwareType,DateUTC
2013-06-15 00:00:00,83.6,74.0,29.92,SE,137,2.0,2.0,73,0.00,,,0.00,Wunderground v.1.15,2013-06-15 05:00:00,
2013-06-15 00:10:00,83.7,74.1,29.92,SE,138,2.0,3.0,73,0.00,,,0.00,Wunderground v.1.15,2013-06-15 05:10:00,
2013-06-15 00:15:00,83.6,74.0,29.92,South,169,3.0,4.0,73,0.00,,,0.00,Wunderground v.1.15,2013-06-15 05:15:00,
2013-06-15 00:20:00,83.4,74.2,29.92,SSE,167,3.0,5.0,74,0.00,,,0.00,Wunderground v.1.15,2013-06-15 05:20:00,
2013-06-15 00:25:00,83.0,74.3,29.92,SSE,167,3.0,5.0,75,0.00,,,0.00,Wunderground v.1.15,2013-06-15 05:25:00,
2013-06-15 00:35:00,82.5,74.2,29.92,South,176,3.0,3.0,76,0.00,,,0.00,Wunderground v.1.15,2013-06-15 05:35:00,
2013-06-15 00:45:00,82.2,74.3,29.92,South,176,2.0,3.0,77,0.00,,,0.00,Wunderground v.1.15,2013-06-15 05:45:00,
2013-06-15 00:50:00,82.1,74.2,29.92,South,176,2.0,2.0,77,0.00,,,0.00,Wunderground v.1.15,2013-06-15 05:50:00,
2013-06-15 00:55:00,81.9,74.4,29.92,South,176,2.0,2.0,78,0.00,,,0.00,Wunderground v.1.15,2013-06-15 05:55:00,
2013-06-15 01:05:00,82.0,74.5,29.92,South,173,3.0,3.0,78,0.00,,,0.00,Wunderground v.1.15,2013-06-15 06:05:00,
2013-06-15 01:15:00,82.1,74.2,29.91,South,173,2.0,3.0,77,0.00,,,0.00,Wunderground v.1.15,2013-06-15 06:15:00,
2013-06-15 01:20:00,82.1,74.2,29.91,SSE,148,2.0,2.0,77,0.00,,,0.00,Wunderground v.1.15,2013-06-15 06:20:00,
2013-06-15 01:25:00,82.0,74.1,29.92,ESE,118,3.0,3.0,77,0.00,,,0.00,Wunderground v.1.15,2013-06-15 06:25:00,
2013-06-15 01:30:00,81.4,73.9,29.92,SE,130,3.0,5.0,78,0.00,,,0.00,Wunderground v.1.15,2013-06-15 06:30:00,
2013-06-15 01:40:00,80.5,73.8,29.91,ESE,119,3.0,3.0,80,0.00,,,0.00,Wunderground v.1.15,2013-06-15 06:40:00,
2013-06-15 01:45:00,80.2,73.8,29.91,SE,140,3.0,3.0,81,0.00,,,0.00,Wunderground v.1.15,2013-06-15 06:45:00,
2013-06-15 01:50:00,80.0,73.6,29.92,SSE,147,4.0,4.0,81,0.00,,,0.00,Wunderground v.1.15,2013-06-15 06:50:00,
2013-06-15 01:55:00,80.0,73.3,29.92,SE,129,4.0,4.0,80,0.00,,,0.00,Wunderground v.1.15,2013-06-15 06:55:00,
2013-06-15 02:00:00,80.1,73.4,29.91,SE,135,4.0,4.0,80,0.00,,,0.00,Wunderground v.1.15,2013-06-15 07:00:00,
2013-06-15 02:05:00,80.2,73.1,29.91,SE,143,4.0,4.0,79,0.00,,,0.00,Wunderground v.1.15,2013-06-15 07:05:00,
2013-06-15 02:10:00,80.3,72.8,29.91,SE,130,4.0,5.0,78,0.00,,,0.00,Wunderground v.1.15,2013-06-15 07:10:00,
2013-06-15 02:20:00,80.8,72.9,29.91,SE,134,4.0,4.0,77,0.00,,,0.00,Wunderground v.1.15,2013-06-15 07:20:00,
2013-06-15 02:30:00,80.7,73.2,29.91,SSE,147,5.0,5.0,78,0.00,,,0.00,Wunderground v.1.15,2013-06-15 07:30:00,
2013-06-15 02:35:00,80.6,73.5,29.91,SE,139,5.0,5.0,79,0.00,,,0.00,Wunderground v.1.15,2013-06-15 07:35:00,
2013-06-15 02:40:00,80.4,73.3,29.91,SE,134,5.0,5.0,79,0.00,,,0.00,Wunderground v.1.15,2013-06-15 07:40:00,
2013-06-15 02:45:00,80.2,73.5,29.91,SE,130,5.0,5.0,80,0.00,,,0.00,Wunderground v.1.15,2013-06-15 07:45:00,
2013-06-15 02:50:00,80.1,73.7,29.91,SE,140,5.0,6.0,81,0.00,,,0.00,Wunderground v.1.15,2013-06-15 07:50:00,
2013-06-15 02:55:00,80.1,73.7,29.91,SE,130,5.0,6.0,81,0.00,,,0.00,Wunderground v.1.15,2013-06-15 07:55:00,
2013-06-15 03:05:00,79.9,73.9,29.91,SE,129,4.0,6.0,82,0.00,,,0.00,Wunderground v.1.15,2013-06-15 08:05:00,
2013-06-15 03:10:00,79.9,73.9,29.91,SE,135,4.0,4.0,82,0.00,,,0.00,Wunderground v.1.15,2013-06-15 08:10:00,
2013-06-15 03:15:00,79.8,74.2,29.91,SE,129,4.0,4.0,83,0.00,,,0.00,Wunderground v.1.15,2013-06-15 08:15:00,
2013-06-15 03:25:00,79.7,74.1,29.90,SE,134,4.0,5.0,83,0.00,,,0.00,Wunderground v.1.15,2013-06-15 08:25:00,
2013-06-15 03:30:00,79.6,74.3,29.91,SE,144,5.0,5.0,84,0.00,,,0.00,Wunderground v.1.15,2013-06-15 08:30:00,
2013-06-15 03:35:00,79.6,74.3,29.90,SE,132,4.0,5.0,84,0.00,,,0.00,Wunderground v.1.15,2013-06-15 08:35:00,
2013-06-15 03:40:00,79.4,74.1,29.90,SSE,153,4.0,5.0,84,0.00,,,0.00,Wunderground v.1.15,2013-06-15 08:40:00,
2013-06-15 03:45:00,79.3,74.4,29.90,SE,140,4.0,5.0,85,0.00,,,0.00,Wunderground v.1.15,2013-06-15 08:45:00,
2013-06-15 03:50:00,79.3,74.4,29.90,SE,133,4.0,5.0,85,0.00,,,0.00,Wunderground v.1.15,2013-06-15 08:50:00,
2013-06-15 03:55:00,79.3,74.4,29.90,SE,145,4.0,5.0,85,0.00,,,0.00,Wunderground v.1.15,2013-06-15 08:55:00,
2013-06-15 04:00:00,79.3,74.7,29.90,ESE,123,4.0,4.0,86,0.00,,,0.00,Wunderground v.1.15,2013-06-15 09:00:00,
2013-06-15 04:10:00,79.1,74.5,29.90,ESE,110,3.0,3.0,86,0.00,,,0.00,Wunderground v.1.15,2013-06-15 09:10:00,
2013-06-15 04:20:00,79.0,74.8,29.90,SSE,152,4.0,4.0,87,0.00,,,0.00,Wunderground v.1.15,2013-06-15 09:20:00,
2013-06-15 04:30:00,79.1,74.9,29.89,ESE,116,3.0,3.0,87,0.00,,,0.00,Wunderground v.1.15,2013-06-15 09:30:00,
2013-06-15 04:35:00,79.1,74.9,29.89,SE,135,3.0,5.0,87,0.00,,,0.00,Wunderground v.1.15,2013-06-15 09:35:00,
2013-06-15 04:40:00,79.1,74.9,29.89,SE,136,3.0,6.0,87,0.00,,,0.00,Wunderground v.1.15,2013-06-15 09:40:00,
2013-06-15 04:45:00,79.0,74.8,29.89,SSE,153,4.0,6.0,87,0.00,,,0.00,Wunderground v.1.15,2013-06-15 09:45:00,
2013-06-15 04:55:00,78.8,74.9,29.89,SE,139,4.0,4.0,88,0.00,,,0.00,Wunderground v.1.15,2013-06-15 09:55:00,
2013-06-15 05:00:00,78.8,74.9,29.89,SE,126,3.0,3.0,88,0.00,,,0.00,Wunderground v.1.15,2013-06-15 10:00:00,
2013-06-15 05:05:00,78.6,74.7,29.89,SE,128,4.0,5.0,88,0.00,,,0.00,Wunderground v.1.15,2013-06-15 10:05:00,
2013-06-15 05:15:00,78.3,74.8,29.89,SE,132,4.0,6.0,89,0.00,,,0.00,Wunderground v.1.15,2013-06-15 10:15:00,
2013-06-15 05:20:00,78.2,74.7,29.90,SE,136,5.0,5.0,89,0.00,,,0.00,Wunderground v.1.15,2013-06-15 10:20:00,
2013-06-15 05:30:00,78.1,74.9,29.90,SE,146,4.0,5.0,90,0.00,,,0.00,Wunderground v.1.15,2013-06-15 10:30:00,
2013-06-15 05:40:00,78.1,74.9,29.90,South,185,4.0,4.0,90,0.00,,,0.00,Wunderground v.1.15,2013-06-15 10:40:00,
2013-06-15 05:45:00,78.1,74.9,29.90,SE,144,4.0,4.0,90,0.00,,,0.00,Wunderground v.1.15,2013-06-15 10:45:00,
2013-06-15 05:50:00,78.1,74.9,29.91,ESE,111,4.0,4.0,90,0.00,,,0.00,Wunderground v.1.15,2013-06-15 10:50:00,
2013-06-15 05:55:00,78.0,74.8,29.91,SE,130,5.0,5.0,90,0.00,,,0.00,Wunderground v.1.15,2013-06-15 10:55:00,
2013-06-15 06:00:00,77.8,74.6,29.91,SSE,152,4.0,4.0,90,0.00,,,0.00,Wunderground v.1.15,2013-06-15 11:00:00,
2013-06-15 06:05:00,77.7,74.5,29.91,ESE,115,4.0,4.0,90,0.00,,,0.00,Wunderground v.1.15,2013-06-15 11:05:00,
2013-06-15 06:10:00,77.7,74.9,29.91,SE,125,3.0,3.0,91,0.00,,,0.00,Wunderground v.1.15,2013-06-15 11:10:00,
2013-06-15 06:20:00,77.8,75.0,29.92,ESE,121,4.0,7.0,91,0.00,,,0.00,Wunderground v.1.15,2013-06-15 11:20:00,
2013-06-15 06:25:00,77.8,75.0,29.92,SSE,162,5.0,7.0,91,0.00,,,0.00,Wunderground v.1.15,2013-06-15 11:25:00,
2013-06-15 06:35:00,78.0,75.2,29.92,ESE,114,4.0,5.0,91,0.00,,,0.00,Wunderground v.1.15,2013-06-15 11:35:00,
2013-06-15 06:40:00,78.0,75.2,29.92,SE,133,5.0,5.0,91,0.00,,,0.00,Wunderground v.1.15,2013-06-15 11:40:00,
2013-06-15 06:45:00,78.1,74.9,29.92,SSE,152,5.0,5.0,90,0.00,,,0.00,Wunderground v.1.15,2013-06-15 11:45:00,
2013-06-15 06:50:00,78.2,75.0,29.92,ESE,123,5.0,5.0,90,0.00,,,0.00,Wunderground v.1.15,2013-06-15 11:50:00,
2013-06-15 06:55:00,78.3,75.1,29.92,SE,138,4.0,5.0,90,0.00,,,0.00,Wunderground v.1.15,2013-06-15 11:55:00,
2013-06-15 07:00:00,78.2,75.0,29.91,SE,138,4.0,4.0,90,0.00,,,0.00,Wunderground v.1.15,2013-06-15 12:00:00,
2013-06-15 07:10:00,78.3,75.1,29.91,SE,126,2.0,2.0,90,0.00,,,0.00,Wunderground v.1.15,2013-06-15 12:10:00,
2013-06-15 07:20:00,78.3,75.1,29.91,ESE,110,2.0,3.0,90,0.00,,,0.00,Wunderground v.1.15,2013-06-15 12:20:00,
2013-06-15 07:25:00,78.2,75.0,29.91,ESE,109,2.0,3.0,90,0.00,,,0.00,Wunderground v.1.15,2013-06-15 12:25:00,
2013-06-15 07:30:00,78.2,75.0,29.91,ESE,110,2.0,2.0,90,0.00,,,0.00,Wunderground v.1.15,2013-06-15 12:30:00,
2013-06-15 07:35:00,78.2,75.0,29.91,ESE,110,1.0,2.0,90,0.00,,,0.00,Wunderground v.1.15,2013-06-15 12:35:00,
2013-06-15 07:45:00,78.3,75.1,29.92,ENE,63,1.0,1.0,90,0.00,,,0.00,Wunderground v.1.15,2013-06-15 12:45:00,
2013-06-15 07:50:00,78.3,75.1,29.92,ENE,63,2.0,2.0,90,0.00,,,0.00,Wunderground v.1.15,2013-06-15 12:50:00,
2013-06-15 07:55:00,78.3,75.1,29.92,ENE,63,2.0,2.0,90,0.00,,,0.00,Wunderground v.1.15,2013-06-15 12:55:00,
2013-06-15 08:05:00,78.4,75.2,29.94,East,94,2.0,5.0,90,0.00,,,0.00,Wunderground v.1.15,2013-06-15 13:05:00,
2013-06-15 08:10:00,78.4,75.2,29.94,ESE,102,3.0,3.0,90,0.00,,,0.00,Wunderground v.1.15,2013-06-15 13:10:00,
2013-06-15 08:20:00,78.3,75.1,29.95,SE,141,4.0,6.0,90,0.00,,,0.00,Wunderground v.1.15,2013-06-15 13:20:00,
2013-06-15 08:25:00,78.2,75.4,29.96,ESE,123,5.0,10.0,91,0.00,,,0.00,Wunderground v.1.15,2013-06-15 13:25:00,
2013-06-15 08:30:00,78.2,75.0,29.96,SSE,149,5.0,5.0,90,0.00,,,0.00,Wunderground v.1.15,2013-06-15 13:30:00,
2013-06-15 08:45:00,78.3,74.5,29.97,ESE,120,8.0,12.0,88,0.00,,,0.00,Wunderground v.1.15,2013-06-15 13:45:00,
2013-06-15 08:50:00,78.6,74.7,29.97,SE,145,7.0,7.0,88,0.00,,,0.00,Wunderground v.1.15,2013-06-15 13:50:00,
2013-06-15 08:55:00,78.9,74.7,29.97,SSE,159,5.0,7.0,87,0.00,,,0.00,Wunderground v.1.15,2013-06-15 13:55:00,
2013-06-15 09:05:00,78.9,74.4,29.97,SE,128,6.0,9.0,86,0.00,,,0.00,Wunderground v.1.15,2013-06-15 14:05:00,
2013-06-15 09:15:00,78.9,74.4,29.97,SSE,151,7.0,7.0,86,0.00,,,0.00,Wunderground v.1.15,2013-06-15 14:15:00,
2013-06-15 09:20:00,79.2,74.3,29.98,SSE,167,6.0,8.0,85,0.00,,,0.00,Wunderground v.1.15,2013-06-15 14:20:00,
2013-06-15 09:25:00,79.4,74.1,29.97,SE,142,7.0,8.0,84,0.00,,,0.00,Wunderground v.1.15,2013-06-15 14:25:00,
2013-06-15 09:30:00,79.5,74.2,29.97,South,190,7.0,7.0,84,0.00,,,0.00,Wunderground v.1.15,2013-06-15 14:30:00,
2013-06-15 09:35:00,80.4,72.5,29.98,South,189,8.0,13.0,77,0.00,,,0.00,Wunderground v.1.15,2013-06-15 14:35:00,
2013-06-15 09:45:00,81.2,72.5,29.98,SE,136,9.0,9.0,75,0.00,,,0.00,Wunderground v.1.15,2013-06-15 14:45:00,
2013-06-15 09:55:00,81.3,73.0,29.98,South,172,7.0,7.0,76,0.00,,,0.00,Wunderground v.1.15,2013-06-15 14:55:00,
2013-06-15 10:00:00,81.2,72.9,29.98,SSW,198,7.0,12.0,76,0.00,,,0.00,Wunderground v.1.15,2013-06-15 15:00:00,
2013-06-15 10:05:00,81.4,73.1,29.98,South,173,7.0,12.0,76,0.00,,,0.00,Wunderground v.1.15,2013-06-15 15:05:00,
2013-06-15 10:10:00,81.8,73.1,29.97,South,175,8.0,8.0,75,0.00,,,0.00,Wunderground v.1.15,2013-06-15 15:10:00,
2013-06-15 10:20:00,82.0,71.7,29.97,South,172,10.0,12.0,71,0.00,,,0.00,Wunderground v.1.15,2013-06-15 15:20:00,
2013-06-15 10:25:00,82.2,71.9,29.97,South,171,11.0,12.0,71,0.00,,,0.00,Wunderground v.1.15,2013-06-15 15:25:00,
2013-06-15 10:35:00,82.7,71.9,29.96,South,182,10.0,12.0,70,0.00,,,0.00,Wunderground v.1.15,2013-06-15 15:35:00,
2013-06-15 10:45:00,83.2,71.5,29.96,South,178,9.0,11.0,68,0.00,,,0.00,Wunderground v.1.15,2013-06-15 15:45:00,
2013-06-15 10:50:00,83.3,71.6,29.96,SSE,167,10.0,10.0,68,0.00,,,0.00,Wunderground v.1.15,2013-06-15 15:50:00,
2013-06-15 10:55:00,83.6,71.9,29.96,SSW,197,9.0,10.0,68,0.00,,,0.00,Wunderground v.1.15,2013-06-15 15:55:00,
2013-06-15 11:00:00,83.9,71.8,29.96,South,170,8.0,11.0,67,0.00,,,0.00,Wunderground v.1.15,2013-06-15 16:00:00,
2013-06-15 11:05:00,83.4,71.7,29.96,South,170,10.0,12.0,68,0.00,,,0.00,Wunderground v.1.15,2013-06-15 16:05:00,
2013-06-15 11:10:00,83.3,72.1,29.97,South,185,10.0,10.0,69,0.00,,,0.00,Wunderground v.1.15,2013-06-15 16:10:00,
2013-06-15 11:20:00,83.6,71.9,29.96,South,175,9.0,9.0,68,0.00,,,0.00,Wunderground v.1.15,2013-06-15 16:20:00,
2013-06-15 11:25:00,83.8,72.5,29.96,South,179,9.0,9.0,69,0.00,,,0.00,Wunderground v.1.15,2013-06-15 16:25:00,
2013-06-15 11:35:00,84.0,72.3,29.96,South,171,7.0,7.0,68,0.00,,,0.00,Wunderground v.1.15,2013-06-15 16:35:00,
2013-06-15 11:45:00,83.6,72.8,29.96,ESE,118,8.0,9.0,70,0.00,,,0.00,Wunderground v.1.15,2013-06-15 16:45:00,
2013-06-15 11:50:00,84.0,73.2,29.97,SE,144,7.0,7.0,70,0.00,,,0.00,Wunderground v.1.15,2013-06-15 16:50:00,
2013-06-15 11:55:00,83.8,73.0,29.96,SSE,153,6.0,7.0,70,0.00,,,0.00,Wunderground v.1.15,2013-06-15 16:55:00,
2013-06-15 12:05:00,83.6,73.2,29.96,SSW,193,7.0,8.0,71,0.00,,,0.00,Wunderground v.1.15,2013-06-15 17:05:00,
2013-06-15 12:15:00,83.6,73.2,29.95,SSE,161,7.0,9.0,71,0.00,,,0.00,Wunderground v.1.15,2013-06-15 17:15:00,
2013-06-15 12:20:00,83.7,72.9,29.95,South,170,7.0,10.0,70,0.00,,,0.00,Wunderground v.1.15,2013-06-15 17:20:00,
2013-06-15 12:25:00,83.8,73.4,29.96,South,180,6.0,10.0,71,0.00,,,0.00,Wunderground v.1.15,2013-06-15 17:25:00,
2013-06-15 12:30:00,83.6,73.2,29.96,SSE,167,6.0,6.0,71,0.00,,,0.00,Wunderground v.1.15,2013-06-15 17:30:00,
2013-06-15 12:35:00,83.6,73.2,29.95,SSE,163,6.0,6.0,71,0.00,,,0.00,Wunderground v.1.15,2013-06-15 17:35:00,
2013-06-15 12:40:00,83.7,73.3,29.95,South,176,6.0,6.0,71,0.00,,,0.00,Wunderground v.1.15,2013-06-15 17:40:00,
2013-06-15 12:45:00,84.2,73.3,29.96,South,188,6.0,6.0,70,0.00,,,0.00,Wunderground v.1.15,2013-06-15 17:45:00,
2013-06-15 12:50:00,84.1,72.8,29.95,South,182,5.0,5.0,69,0.00,,,0.00,Wunderground v.1.15,2013-06-15 17:50:00,
2013-06-15 12:55:00,83.7,72.9,29.95,South,171,5.0,5.0,70,0.00,,,0.00,Wunderground v.1.15,2013-06-15 17:55:00,
2013-06-15 13:00:00,83.9,73.1,29.95,SSW,192,5.0,5.0,70,0.00,,,0.00,Wunderground v.1.15,2013-06-15 18:00:00,
2013-06-15 13:05:00,84.0,73.2,29.95,South,175,4.0,5.0,70,0.00,,,0.00,Wunderground v.1.15,2013-06-15 18:05:00,
2013-06-15 13:15:00,84.5,73.2,29.95,SSW,194,3.0,5.0,69,0.00,,,0.00,Wunderground v.1.15,2013-06-15 18:15:00,
2013-06-15 13:20:00,84.7,73.0,29.95,SSW,207,4.0,4.0,68,0.00,,,0.00,Wunderground v.1.15,2013-06-15 18:20:00,
2013-06-15 13:25:00,84.7,72.5,29.94,South,178,4.0,4.0,67,0.00,,,0.00,Wunderground v.1.15,2013-06-15 18:25:00,
2013-06-15 13:30:00,85.0,73.3,29.94,South,178,4.0,5.0,68,0.00,,,0.00,Wunderground v.1.15,2013-06-15 18:30:00,
2013-06-15 13:35:00,85.0,73.3,29.94,SSW,200,4.0,5.0,68,0.00,,,0.00,Wunderground v.1.15,2013-06-15 18:35:00,
2013-06-15 13:45:00,85.0,73.7,29.94,SW,227,3.0,7.0,69,0.00,,,0.00,Wunderground v.1.15,2013-06-15 18:45:00,
2013-06-15 13:50:00,84.8,72.6,29.94,SSW,210,4.0,4.0,67,0.00,,,0.00,Wunderground v.1.15,2013-06-15 18:50:00,
2013-06-15 13:55:00,85.0,72.8,29.94,SW,219,4.0,4.0,67,0.00,,,0.00,Wunderground v.1.15,2013-06-15 18:55:00,
2013-06-15 14:00:00,85.1,72.0,29.94,SSW,208,3.0,4.0,65,0.00,,,0.00,Wunderground v.1.15,2013-06-15 19:00:00,
2013-06-15 14:05:00,84.9,72.3,29.94,SW,229,4.0,4.0,66,0.00,,,0.00,Wunderground v.1.15,2013-06-15 19:05:00,
2013-06-15 14:10:00,85.1,72.5,29.94,SW,228,4.0,4.0,66,0.00,,,0.00,Wunderground v.1.15,2013-06-15 19:10:00,
2013-06-15 14:20:00,85.5,72.4,29.94,SW,214,3.0,5.0,65,0.00,,,0.00,Wunderground v.1.15,2013-06-15 19:20:00,
2013-06-15 14:30:00,85.4,72.3,29.93,SSW,204,4.0,4.0,65,0.00,,,0.00,Wunderground v.1.15,2013-06-15 19:30:00,
2013-06-15 14:35:00,85.6,72.5,29.93,SSW,197,4.0,5.0,65,0.00,,,0.00,Wunderground v.1.15,2013-06-15 19:35:00,
2013-06-15 14:40:00,85.8,72.2,29.93,SSW,200,4.0,4.0,64,0.00,,,0.00,Wunderground v.1.15,2013-06-15 19:40:00,
2013-06-15 14:45:00,85.6,72.0,29.93,SSW,197,5.0,5.0,64,0.00,,,0.00,Wunderground v.1.15,2013-06-15 19:45:00,
2013-06-15 14:50:00,85.5,72.4,29.92,SSW,194,4.0,4.0,65,0.00,,,0.00,Wunderground v.1.15,2013-06-15 19:50:00,
2013-06-15 15:00:00,86.0,72.4,29.92,SSW,205,4.0,4.0,64,0.00,,,0.00,Wunderground v.1.15,2013-06-15 20:00:00,
2013-06-15 15:05:00,86.3,72.7,29.92,SW,227,3.0,4.0,64,0.00,,,0.00,Wunderground v.1.15,2013-06-15 20:05:00,
2013-06-15 15:15:00,86.8,72.2,29.92,WSW,239,1.0,5.0,62,0.00,,,0.00,Wunderground v.1.15,2013-06-15 20:15:00,
2013-06-15 15:25:00,86.4,73.2,29.92,SW,227,3.0,5.0,65,0.00,,,0.00,Wunderground v.1.15,2013-06-15 20:25:00,
2013-06-15 15:30:00,86.5,73.3,29.92,SW,229,1.0,1.0,65,0.00,,,0.00,Wunderground v.1.15,2013-06-15 20:30:00,
2013-06-15 15:35:00,86.5,73.3,29.91,WSW,239,1.0,1.0,65,0.00,,,0.00,Wunderground v.1.15,2013-06-15 20:35:00,
2013-06-15 15:40:00,86.6,73.4,29.91,West,263,2.0,2.0,65,0.00,,,0.00,Wunderground v.1.15,2013-06-15 20:40:00,
2013-06-15 15:50:00,87.3,74.1,29.91,SW,236,1.0,1.0,65,0.00,,,0.00,Wunderground v.1.15,2013-06-15 20:50:00,
2013-06-15 15:55:00,87.0,73.8,29.91,WSW,258,2.0,2.0,65,0.00,,,0.00,Wunderground v.1.15,2013-06-15 20:55:00,
2013-06-15 16:00:00,86.5,73.8,29.91,SW,234,4.0,5.0,66,0.00,,,0.00,Wunderground v.1.15,2013-06-15 21:00:00,
2013-06-15 16:05:00,86.3,74.0,29.90,SW,232,4.0,5.0,67,0.00,,,0.00,Wunderground v.1.15,2013-06-15 21:05:00,
2013-06-15 16:10:00,86.5,74.2,29.90,NW,307,3.0,3.0,67,0.00,,,0.00,Wunderground v.1.15,2013-06-15 21:10:00,
2013-06-15 16:20:00,86.6,74.3,29.90,SW,222,1.0,5.0,67,0.00,,,0.00,Wunderground v.1.15,2013-06-15 21:20:00,
2013-06-15 16:30:00,86.3,73.6,29.90,SW,215,4.0,4.0,66,0.00,,,0.00,Wunderground v.1.15,2013-06-15 21:30:00,
2013-06-15 16:35:00,86.2,73.5,29.90,SW,222,4.0,4.0,66,0.00,,,0.00,Wunderground v.1.15,2013-06-15 21:35:00,
2013-06-15 16:40:00,86.2,73.5,29.90,SW,216,4.0,4.0,66,0.00,,,0.00,Wunderground v.1.15,2013-06-15 21:40:00,
2013-06-15 16:45:00,86.1,73.9,29.90,NW,304,4.0,4.0,67,0.00,,,0.00,Wunderground v.1.15,2013-06-15 21:45:00,
2013-06-15 16:50:00,85.9,73.7,29.90,SW,232,4.0,4.0,67,0.00,,,0.00,Wunderground v.1.15,2013-06-15 21:50:00,
2013-06-15 16:55:00,86.0,74.2,29.90,SW,214,4.0,4.0,68,0.00,,,0.00,Wunderground v.1.15,2013-06-15 21:55:00,
2013-06-15 17:00:00,85.7,74.4,29.90,SSW,201,3.0,5.0,69,0.00,,,0.00,Wunderground v.1.15,2013-06-15 22:00:00,
2013-06-15 17:05:00,85.2,73.9,29.90,WSW,246,4.0,5.0,69,0.00,,,0.00,Wunderground v.1.15,2013-06-15 22:05:00,
2013-06-15 17:10:00,84.9,73.6,29.90,SW,226,3.0,3.0,69,0.00,,,0.00,Wunderground v.1.15,2013-06-15 22:10:00,
2013-06-15 17:15:00,84.8,73.5,29.90,WSW,238,3.0,4.0,69,0.00,,,0.00,Wunderground v.1.15,2013-06-15 22:15:00,
2013-06-15 17:20:00,84.6,74.2,29.91,SW,224,3.0,3.0,71,0.00,,,0.00,Wunderground v.1.15,2013-06-15 22:20:00,
2013-06-15 17:30:00,84.2,74.2,29.90,SW,218,4.0,4.0,72,0.00,,,0.00,Wunderground v.1.15,2013-06-15 22:30:00,
2013-06-15 17:35:00,84.2,74.2,29.90,SW,230,3.0,4.0,72,0.00,,,0.00,Wunderground v.1.15,2013-06-15 22:35:00,
2013-06-15 17:40:00,84.1,73.7,29.90,SSW,201,3.0,3.0,71,0.00,,,0.00,Wunderground v.1.15,2013-06-15 22:40:00,
2013-06-15 17:45:00,83.9,73.9,29.89,SSW,204,4.0,4.0,72,0.00,,,0.00,Wunderground v.1.15,2013-06-15 22:45:00,
2013-06-15 17:50:00,83.6,73.2,29.89,SSW,213,5.0,5.0,71,0.00,,,0.00,Wunderground v.1.15,2013-06-15 22:50:00,
2013-06-15 17:55:00,83.4,73.4,29.89,SSW,199,5.0,5.0,72,0.00,,,0.00,Wunderground v.1.15,2013-06-15 22:55:00,
2013-06-15 18:00:00,83.3,73.7,29.89,SW,223,5.0,5.0,73,0.00,,,0.00,Wunderground v.1.15,2013-06-15 23:00:00,
2013-06-15 18:10:00,83.2,73.6,29.88,SSW,198,4.0,4.0,73,0.00,,,0.00,Wunderground v.1.15,2013-06-15 23:10:00,
2013-06-15 18:15:00,83.3,73.7,29.88,SW,216,3.0,4.0,73,0.00,,,0.00,Wunderground v.1.15,2013-06-15 23:15:00,
2013-06-15 18:20:00,83.2,73.6,29.88,SW,225,3.0,3.0,73,0.00,,,0.00,Wunderground v.1.15,2013-06-15 23:20:00,
2013-06-15 18:25:00,83.0,73.4,29.87,SW,224,3.0,3.0,73,0.00,,,0.00,Wunderground v.1.15,2013-06-15 23:25:00,
2013-06-15 18:30:00,83.1,73.5,29.87,South,187,2.0,6.0,73,0.00,,,0.00,Wunderground v.1.15,2013-06-15 23:30:00,
2013-06-15 18:40:00,82.9,73.4,29.87,SSW,209,4.0,4.0,73,0.00,,,0.00,Wunderground v.1.15,2013-06-15 23:40:00,
2013-06-15 18:45:00,83.0,73.9,29.87,SSW,210,2.0,4.0,74,0.00,,,0.00,Wunderground v.1.15,2013-06-15 23:45:00,
2013-06-15 18:50:00,83.0,73.9,29.87,SSW,207,1.0,2.0,74,0.00,,,0.00,Wunderground v.1.15,2013-06-15 23:50:00,
2013-06-15 18:55:00,82.9,73.8,29.87,South,177,2.0,2.0,74,0.00,,,0.00,Wunderground v.1.15,2013-06-15 23:55:00,
2013-06-15 19:00:00,82.9,73.8,29.87,South,171,2.0,2.0,74,0.00,,,0.00,Wunderground v.1.15,2013-06-16 00:00:00,
2013-06-15 19:05:00,82.7,74.4,29.87,SSE,162,3.0,3.0,76,0.00,,,0.00,Wunderground v.1.15,2013-06-16 00:05:00,
2013-06-15 19:10:00,82.8,74.8,29.87,SSE,168,3.0,3.0,77,0.00,,,0.00,Wunderground v.1.15,2013-06-16 00:10:00,
2013-06-15 19:15:00,82.7,74.8,29.87,SSE,150,3.0,4.0,77,0.00,,,0.00,Wunderground v.1.15,2013-06-16 00:15:00,
2013-06-15 19:20:00,82.6,75.0,29.87,SE,137,3.0,3.0,78,0.00,,,0.00,Wunderground v.1.15,2013-06-16 00:20:00,
2013-06-15 19:25:00,82.6,74.7,29.87,SE,134,3.0,3.0,77,0.00,,,0.00,Wunderground v.1.15,2013-06-16 00:25:00,
2013-06-15 19:30:00,82.6,74.7,29.87,SSE,164,3.0,3.0,77,0.00,,,0.00,Wunderground v.1.15,2013-06-16 00:30:00,
2013-06-15 19:35:00,82.7,74.8,29.88,SSE,164,3.0,4.0,77,0.00,,,0.00,Wunderground v.1.15,2013-06-16 00:35:00,
2013-06-15 19:45:00,82.9,73.4,29.88,SE,146,4.0,5.0,73,0.00,,,0.00,Wunderground v.1.15,2013-06-16 00:45:00,
2013-06-15 19:50:00,83.2,73.2,29.88,SSE,153,4.0,4.0,72,0.00,,,0.00,Wunderground v.1.15,2013-06-16 00:50:00,
2013-06-15 19:55:00,83.3,73.3,29.88,SE,128,4.0,5.0,72,0.00,,,0.00,Wunderground v.1.15,2013-06-16 00:55:00,
2013-06-15 20:00:00,82.9,73.8,29.88,SSE,147,5.0,5.0,74,0.00,,,0.00,Wunderground v.1.15,2013-06-16 01:00:00,
2013-06-15 20:10:00,82.4,74.1,29.88,SE,142,4.0,4.0,76,0.00,,,0.00,Wunderground v.1.15,2013-06-16 01:10:00,
2013-06-15 20:15:00,82.1,73.8,29.88,SE,144,4.0,4.0,76,0.00,,,0.00,Wunderground v.1.15,2013-06-16 01:15:00,
2013-06-15 20:25:00,81.7,73.4,29.89,SSE,159,4.0,6.0,76,0.00,,,0.00,Wunderground v.1.15,2013-06-16 01:25:00,
2013-06-15 20:30:00,81.6,73.3,29.89,SE,140,4.0,4.0,76,0.00,,,0.00,Wunderground v.1.15,2013-06-16 01:30:00,
2013-06-15 20:35:00,81.4,73.1,29.90,SE,144,4.0,4.0,76,0.00,,,0.00,Wunderground v.1.15,2013-06-16 01:35:00,
2013-06-15 20:45:00,81.3,73.0,29.90,SE,130,4.0,4.0,76,0.00,,,0.00,Wunderground v.1.15,2013-06-16 01:45:00,
2013-06-15 20:50:00,81.2,73.3,29.90,SE,126,3.0,4.0,77,0.00,,,0.00,Wunderground v.1.15,2013-06-16 01:50:00,
2013-06-15 21:00:00,81.1,73.2,29.90,SE,132,3.0,3.0,77,0.00,,,0.00,Wunderground v.1.15,2013-06-16 02:00:00,
2013-06-15 21:05:00,80.9,73.4,29.90,East,101,3.0,3.0,78,0.00,,,0.00,Wunderground v.1.15,2013-06-16 02:05:00,
2013-06-15 21:10:00,80.5,73.4,29.90,SE,146,4.0,6.0,79,0.00,,,0.00,Wunderground v.1.15,2013-06-16 02:10:00,
2013-06-15 21:15:00,80.0,73.6,29.90,SE,138,5.0,6.0,81,0.00,,,0.00,Wunderground v.1.15,2013-06-16 02:15:00,
2013-06-15 21:20:00,79.5,73.9,29.90,East,83,6.0,8.0,83,0.00,,,0.00,Wunderground v.1.15,2013-06-16 02:20:00,
2013-06-15 21:25:00,79.1,73.8,29.91,SE,140,7.0,9.0,84,0.00,,,0.00,Wunderground v.1.15,2013-06-16 02:25:00,
2013-06-15 21:30:00,78.6,73.7,29.91,SE,131,7.0,7.0,85,0.00,,,0.00,Wunderground v.1.15,2013-06-16 02:30:00,
2013-06-15 21:35:00,78.2,73.3,29.91,ESE,105,7.0,7.0,85,0.00,,,0.00,Wunderground v.1.15,2013-06-16 02:35:00,
2013-06-15 21:40:00,77.6,72.0,29.91,South,169,7.0,7.0,83,0.00,,,0.00,Wunderground v.1.15,2013-06-16 02:40:00,
2013-06-15 21:50:00,76.8,70.9,29.91,SE,132,7.0,8.0,82,0.00,,,0.00,Wunderground v.1.15,2013-06-16 02:50:00,
2013-06-15 22:00:00,76.3,70.8,29.92,SE,140,6.0,10.0,83,0.00,,,0.00,Wunderground v.1.15,2013-06-16 03:00:00,
2013-06-15 22:05:00,76.0,70.5,29.92,SE,140,6.0,10.0,83,0.00,,,0.00,Wunderground v.1.15,2013-06-16 03:05:00,
2013-06-15 22:10:00,76.0,70.8,29.92,SE,141,6.0,7.0,84,0.00,,,0.00,Wunderground v.1.15,2013-06-16 03:10:00,
2013-06-15 22:15:00,75.8,70.6,29.92,SSE,155,5.0,7.0,84,0.00,,,0.00,Wunderground v.1.15,2013-06-16 03:15:00,
2013-06-15 22:20:00,75.7,70.5,29.92,SE,136,5.0,5.0,84,0.00,,,0.00,Wunderground v.1.15,2013-06-16 03:20:00,
2013-06-15 22:25:00,75.5,70.3,29.93,SE,126,5.0,8.0,84,0.00,,,0.00,Wunderground v.1.15,2013-06-16 03:25:00,
2013-06-15 22:30:00,75.5,70.7,29.93,SSE,159,5.0,5.0,85,0.00,,,0.00,Wunderground v.1.15,2013-06-16 03:30:00,
2013-06-15 22:35:00,75.5,70.7,29.93,SE,128,4.0,5.0,85,0.00,,,0.00,Wunderground v.1.15,2013-06-16 03:35:00,
2013-06-15 22:40:00,75.5,70.3,29.93,SE,136,4.0,4.0,84,0.00,,,0.00,Wunderground v.1.15,2013-06-16 03:40:00,
2013-06-15 22:45:00,75.3,70.1,29.94,SE,136,5.0,5.0,84,0.00,,,0.00,Wunderground v.1.15,2013-06-16 03:45:00,
2013-06-15 22:50:00,75.3,70.1,29.94,SE,138,4.0,4.0,84,0.00,,,0.00,Wunderground v.1.15,2013-06-16 03:50:00,
2013-06-15 23:00:00,75.2,70.0,29.94,SE,140,5.0,9.0,84,0.00,,,0.00,Wunderground v.1.15,2013-06-16 04:00:00,
2013-06-15 23:05:00,75.1,69.9,29.94,SE,131,5.0,9.0,84,0.00,,,0.00,Wunderground v.1.15,2013-06-16 04:05:00,
2013-06-15 23:10:00,75.0,69.8,29.94,SE,140,5.0,5.0,84,0.00,,,0.00,Wunderground v.1.15,2013-06-16 04:10:00,
2013-06-15 23:15:00,75.0,69.8,29.94,SE,124,5.0,5.0,84,0.00,,,0.00,Wunderground v.1.15,2013-06-16 04:15:00,
2013-06-15 23:20:00,75.1,69.9,29.94,SSE,155,4.0,4.0,84,0.00,,,0.00,Wunderground v.1.15,2013-06-16 04:20:00,
2013-06-15 23:25:00,75.1,69.6,29.94,SE,133,4.0,4.0,83,0.00,,,0.00,Wunderground v.1.15,2013-06-16 04:25:00,
2013-06-15 23:30:00,75.0,69.5,29.94,South,182,4.0,7.0,83,0.00,,,0.00,Wunderground v.1.15,2013-06-16 04:30:00,
2013-06-15 23:35:00,75.0,69.5,29.94,SSE,161,4.0,7.0,83,0.00,,,0.00,Wunderground v.1.15,2013-06-16 04:35:00,
2013-06-15 23:40:00,75.0,69.5,29.94,SSE,159,4.0,5.0,83,0.00,,,0.00,Wunderground v.1.15,2013-06-16 04:40:00,
2013-06-15 23:45:00,75.0,69.5,29.94,SSE,167,4.0,5.0,83,0.00,,,0.00,Wunderground v.1.15,2013-06-16 04:45:00,
2013-06-15 23:55:00,74.9,69.0,29.94,SE,136,4.0,6.0,82,0.00,,,0.00,Wunderground v.1.15,2013-06-16 04:55:00,